Home   Weather   Thompson   Past weeks

Flag for Canada Past Weather in Thompson, Manitoba, Canada — Yesterday and Last 2 Weeks

34 °F


Feels Like: 34 °F
Forecast: 27 / 33 °F
Wind: 2 mph from Northwest

Location: Thompson

Current Time: Oct 27, 2016 at 11:26:29 PM

Latest Report: Oct 27, 2016 at 11:00 PM

Visibility: 0 mi

Pressure: 29.95 "Hg

Humidity: 93%

Dew Point: 32 °F

Location of ThompsonLocation

Past Weather in Thompson — Graph


Thompson Temperature Yesterday

Maximum temperature yesterday: 36 °F (at 1:00 PM)
Minimum temperature yesterday: 30 °F (at 12:00 AM)
Average temperature yesterday: 33 °F

High & Low Weather Summary for the Past Weeks

High39 °F (Oct 23, 3:00 PM)100% (Oct 17, 9:00 PM)30.54 "Hg (Oct 17, 9:00 PM)
Low12 °F (Oct 13, 7:00 AM)59% (Oct 13, 1:00 PM)29.34 "Hg (Oct 17, 5:00 PM)
Average30 °F87%30.00 "Hg
* Reported Oct 12 10:00 PM — Oct 27 10:00 PM, Thompson, Weather by CustomWeather, © 2016

Note: Actual official high and low records may vary slightly from our data, if they occured in-between our weather recording intervals... More about our weather records


Thompson Weather History for the Previous 24 Hours

Scroll right to see more
Time TempWeatherWind HumidityBarometerVisibility
10:00 PM
Thu, Oct 27
34 °FFog.No wind93%29.93 "Hg1 mi
9:47 PM34 °FFog.2 mph93%29.93 "Hg1 mi
9:00 PM32 °FIce fog.No wind100%29.94 "Hg1 mi
8:55 PM32 °FFog.2 mph100%29.94 "Hg1 mi
8:00 PM34 °FFog.No wind93%29.93 "Hg0 mi
7:00 PM34 °FFog.No wind93%29.94 "Hg1 mi
6:00 PM34 °FLight snow. Fog.No wind100%29.93 "Hg4 mi
5:00 PM34 °FLight snow. Fog.No wind100%29.93 "Hg4 mi
4:00 PM34 °FLight snow. Low clouds.2 mph93%29.94 "Hg10 mi
3:00 PM34 °FLow clouds.3 mph93%29.94 "Hg10 mi
2:00 PM34 °FLight snow. Low clouds.2 mph93%29.94 "Hg8 mi
1:00 PM34 °FLight snow. Fog.No wind93%29.94 "Hg6 mi
12:00 PM34 °FLight snow. Fog.No wind93%29.96 "Hg5 mi
11:00 AM32 °FLight snow. Ice fog.No wind100%29.96 "Hg1 mi
10:00 AM32 °FLight snow. Ice fog.2 mph100%29.96 "Hg1 mi
9:00 AM32 °FDrizzle. Fog.3 mph100%29.97 "Hg1 mi
8:00 AM32 °FDrizzle. Fog.2 mph100%29.97 "Hg1 mi
7:00 AM32 °FDrizzle. Fog.5 mph100%29.96 "Hg1 mi
6:00 AM32 °FDrizzle. Ice fog.2 mph100%29.96 "Hg1 mi
5:00 AM32 °FDrizzle. Ice fog.2 mph100%29.97 "Hg1 mi
4:00 AM32 °FDrizzle. Ice fog.2 mph100%29.96 "Hg1 mi
3:50 AM32 °FDrizzle. Ice fog.3 mph100%29.96 "Hg1 mi
2:00 AM32 °FDrizzle. Ice fog.3 mph100%29.98 "Hg2 mi
1:00 AM32 °FDrizzle. Ice fog.5 mph100%29.99 "Hg3 mi
12:00 AM32 °FDrizzle. Ice fog.3 mph100%29.99 "Hg3 mi
11:49 PM
Wed, Oct 26
32 °FDrizzle. Ice fog.3 mph100%29.99 "Hg3 mi
11:00 PM32 °FLight snow. Low clouds.3 mph100%29.99 "Hg3 mi
Weather by CustomWeather, © 2016

See weather overviewHow to use our weather pages